COSMOS 2499 DEB, 55724

Orbit data source: Space-Track

COSMOS 2499 DEB, 55724 is space debris in LEO originally from a launch on Fri, 23 May 2014 UTC launched from the Plesetsk Missile And Space Complex (PKMTR). Debris objects in space refer to the collection of defunct objects orbiting the Earth. Examples of debris include non-operational satellites, rocket bodies, and fragments generated from explosions, collisions, or faulty payload assembly.

Not visible in the next 10 days
Identifier
55724, 2014-028AL
Orbit
LEO
Country
Flag of CISCIS
Related business
Manufacturer
TsNIIKhM
Mission
Spacecraft
Bus & Motor
Unknown
Mass
Unknown
Launch date (UTC)
2014-05-23 (12 years ago)
Launch vehicle
Unknown
Launch site
Plesetsk Missile And Space Complex (PKMTR)
Object type
Payload
Rocket body
Debris
Shape & HBR
Unknown shape, 0.1 m
Radar Cross Section
Small (<0.1 m²)

Expand to show TLE details & history
Last TLE update: 8 months ago

TLE from 8 months ago
0 COSMOS 2499 DEB
1 55724U 14028AL  25103.64162895  .00280101  00000-0  13662+0 0  9999
2 55724  81.8088  72.5530 0224477  59.7836 302.5353 14.03937561109745
Epoch: 2025-04-13T15:23Z
TLE epoch observation values (Epoch: 2025-04-13T15:23:56.741Z)
Latitude
0.00001°
Longitude
-0.50144°
Altitude
798.102 km
Speed
7.498 km/s
True Right ascension
04h 50m 12s
True Declination
0° 00' 00"
Sunlit
Object was in daylight at epoch
Visualization orbit readout
Latitude
Unknown
Longitude
Unknown
Altitude
Unknown
Speed
Unknown
Apparent Right ascension
Unknown
Apparent Declination
Unknown
Sunlit
N/A
Visualization observer readout
Local Sidereal Time
03:22:58
Azimuth
Unknown
Elevation
Unknown
Doppler factor
Unknown
Orbital elements
Apogee altitude
1,040.215 km
Perigee altitude
714.477 km
Semi-major axis
7,255.483 km
Eccentricity
0.02245
Inclination
81.8088°
RAAN
72.553°
Arg. of periapsis
59.7836°
True anomaly
300.33402°
Mean anomaly
302.5353°
Eccentric anomaly
301.43794°
Mean motion
3.51191 °/min
Orbital period
102.51 mins
BSTAR
0.13662
Loading maneuver chart data...
Computing Atmospheric mass density...
Loading historical data...
Loading historical data...
Loading historical data...
Loading historical data...
Loading historical data...
Loading historical data...
Loading historical data...

Documentation

Showing up to 5 results
|